Time,TemperatureF,DewpointF,PressureIn,WindDirection,WindDirectionDegrees,WindSpeedMPH,WindSpeedGustMPH,Humidity,HourlyPrecipIn,Conditions,Clouds,dailyrainin,SoftwareType,DateUTC
2013-07-22 00:13:00,58.7,55.0,29.95,South,176,1.0,3.0,86,0.00,,,0.00,weatherlink.com 1.10,2013-07-22 04:13:00,
2013-07-22 00:28:00,58.4,54.0,29.94,South,172,1.0,4.0,86,0.00,,,0.00,weatherlink.com 1.10,2013-07-22 04:28:00,
2013-07-22 00:43:00,58.4,55.0,29.94,SSE,156,0.0,4.0,87,0.00,,,0.00,weatherlink.com 1.10,2013-07-22 04:43:00,
2013-07-22 00:58:00,58.2,54.0,29.93,SSE,163,1.0,3.0,87,0.00,,,0.00,weatherlink.com 1.10,2013-07-22 04:58:00,
2013-07-22 01:13:00,58.2,55.0,29.93,SSE,152,3.0,4.0,88,0.00,,,0.00,weatherlink.com 1.10,2013-07-22 05:13:00,
2013-07-22 01:28:00,58.5,55.0,29.94,SSE,162,2.0,3.0,88,0.00,,,0.00,weatherlink.com 1.10,2013-07-22 05:28:00,
2013-07-22 01:43:00,58.9,56.0,29.93,SSE,153,1.0,6.0,89,0.00,,,0.00,weatherlink.com 1.10,2013-07-22 05:43:00,
2013-07-22 01:58:00,58.9,56.0,29.93,SSE,165,1.0,5.0,89,0.00,,,0.00,weatherlink.com 1.10,2013-07-22 05:58:00,
2013-07-22 02:13:00,58.8,56.0,29.93,SSE,164,2.0,3.0,90,0.00,,,0.00,weatherlink.com 1.10,2013-07-22 06:13:00,
2013-07-22 02:28:00,59.3,56.0,29.92,SSE,160,1.0,3.0,90,0.00,,,0.00,weatherlink.com 1.10,2013-07-22 06:28:00,
2013-07-22 02:43:00,59.9,57.0,29.91,SSE,161,1.0,2.0,89,0.00,,,0.00,weatherlink.com 1.10,2013-07-22 06:43:00,
2013-07-22 02:58:00,60.1,57.0,29.91,SSE,159,1.0,3.0,89,0.00,,,0.00,weatherlink.com 1.10,2013-07-22 06:58:00,
2013-07-22 03:13:00,60.5,57.0,29.91,SE,144,2.0,3.0,89,0.00,,,0.00,weatherlink.com 1.10,2013-07-22 07:13:00,
2013-07-22 03:28:00,60.7,57.0,29.91,South,175,1.0,4.0,88,0.00,,,0.00,weatherlink.com 1.10,2013-07-22 07:28:00,
2013-07-22 03:43:00,60.9,57.0,29.91,SSE,153,0.0,2.0,88,0.00,,,0.00,weatherlink.com 1.10,2013-07-22 07:43:00,
2013-07-22 03:58:00,60.9,57.0,29.91,SSE,156,1.0,2.0,88,0.00,,,0.00,weatherlink.com 1.10,2013-07-22 07:58:00,
2013-07-22 04:13:00,60.8,57.0,29.91,SE,146,1.0,3.0,88,0.00,,,0.00,weatherlink.com 1.10,2013-07-22 08:13:00,
2013-07-22 04:28:00,60.8,57.0,29.91,South,171,0.0,1.0,88,0.00,,,0.00,weatherlink.com 1.10,2013-07-22 08:28:00,
2013-07-22 04:43:00,60.9,58.0,29.90,South,171,0.0,0.0,89,0.00,,,0.00,weatherlink.com 1.10,2013-07-22 08:43:00,
2013-07-22 04:58:00,60.7,57.0,29.90,SSE,158,0.0,2.0,88,0.00,,,0.00,weatherlink.com 1.10,2013-07-22 08:58:00,
2013-07-22 05:13:00,60.7,58.0,29.89,SE,145,1.0,3.0,89,0.00,,,0.00,weatherlink.com 1.10,2013-07-22 09:13:00,
2013-07-22 05:28:00,60.8,57.0,29.89,SSE,150,0.0,2.0,88,0.00,,,0.00,weatherlink.com 1.10,2013-07-22 09:28:00,
2013-07-22 05:43:00,60.8,58.0,29.89,SSE,150,0.0,2.0,89,0.00,,,0.00,weatherlink.com 1.10,2013-07-22 09:43:00,
2013-07-22 05:58:00,60.8,57.0,29.89,SE,146,3.0,4.0,88,0.00,,,0.00,weatherlink.com 1.10,2013-07-22 09:58:00,
2013-07-22 06:13:00,61.1,57.0,29.88,SE,144,4.0,6.0,87,0.00,,,0.00,weatherlink.com 1.10,2013-07-22 10:13:00,
2013-07-22 06:28:00,61.9,58.0,29.89,SSE,167,0.0,8.0,87,0.00,,,0.00,weatherlink.com 1.10,2013-07-22 10:28:00,
2013-07-22 06:43:00,62.1,58.0,29.88,SSE,150,2.0,10.0,87,0.00,,,0.00,weatherlink.com 1.10,2013-07-22 10:43:00,
2013-07-22 06:58:00,62.5,59.0,29.87,SE,142,3.0,8.0,87,0.00,,,0.00,weatherlink.com 1.10,2013-07-22 10:58:00,
2013-07-22 07:13:00,63.1,58.0,29.88,SSE,167,2.0,7.0,84,0.00,,,0.00,weatherlink.com 1.10,2013-07-22 11:13:00,
2013-07-22 07:28:00,63.8,58.0,29.88,SE,132,3.0,6.0,81,0.00,,,0.00,weatherlink.com 1.10,2013-07-22 11:28:00,
2013-07-22 07:43:00,64.1,58.0,29.86,SSE,157,4.0,10.0,81,0.00,,,0.00,weatherlink.com 1.10,2013-07-22 11:43:00,
2013-07-22 07:58:00,64.7,59.0,29.87,SE,135,5.0,11.0,82,0.00,,,0.00,weatherlink.com 1.10,2013-07-22 11:58:00,
2013-07-22 08:13:00,65.0,60.0,29.88,SE,132,5.0,11.0,83,0.00,,,0.00,weatherlink.com 1.10,2013-07-22 12:13:00,
2013-07-22 08:28:00,65.0,60.0,29.87,SE,134,6.0,9.0,84,0.00,,,0.00,weatherlink.com 1.10,2013-07-22 12:28:00,
2013-07-22 08:44:00,65.6,60.0,29.86,SE,146,3.0,13.0,82,0.00,,,0.00,weatherlink.com 1.10,2013-07-22 12:44:00,
2013-07-22 08:59:00,66.7,60.0,29.86,SE,142,8.0,14.0,80,0.00,,,0.00,weatherlink.com 1.10,2013-07-22 12:59:00,
2013-07-22 09:14:00,65.7,60.0,29.86,ESE,119,5.0,13.0,82,0.00,,,0.00,weatherlink.com 1.10,2013-07-22 13:14:00,
2013-07-22 09:29:00,67.2,61.0,29.85,South,190,2.0,12.0,81,0.00,,,0.00,weatherlink.com 1.10,2013-07-22 13:29:00,
2013-07-22 09:44:00,67.5,62.0,29.85,SSE,159,8.0,18.0,81,0.00,,,0.00,weatherlink.com 1.10,2013-07-22 13:44:00,
2013-07-22 09:59:00,67.6,61.0,29.85,SE,135,19.0,19.0,80,0.00,,,0.00,weatherlink.com 1.10,2013-07-22 13:59:00,
2013-07-22 10:14:00,67.9,61.0,29.84,SSE,157,12.0,19.0,79,0.00,,,0.00,weatherlink.com 1.10,2013-07-22 14:14:00,
2013-07-22 10:29:00,68.5,61.0,29.84,SSE,148,6.0,16.0,78,0.00,,,0.00,weatherlink.com 1.10,2013-07-22 14:29:00,
2013-07-22 10:44:00,69.4,62.0,29.84,ESE,110,14.0,22.0,77,0.00,,,0.00,weatherlink.com 1.10,2013-07-22 14:44:00,
2013-07-22 10:59:00,69.0,61.0,29.84,SSE,164,4.0,21.0,75,0.00,,,0.00,weatherlink.com 1.10,2013-07-22 14:59:00,
2013-07-22 11:14:00,68.8,61.0,29.83,SSE,165,5.0,19.0,75,0.00,,,0.00,weatherlink.com 1.10,2013-07-22 15:14:00,
2013-07-22 11:29:00,68.8,61.0,29.83,ESE,117,10.0,17.0,76,0.00,,,0.00,weatherlink.com 1.10,2013-07-22 15:29:00,
2013-07-22 11:44:00,68.3,61.0,29.83,SE,142,13.0,21.0,78,0.00,,,0.00,weatherlink.com 1.10,2013-07-22 15:44:00,
2013-07-22 11:59:00,69.2,62.0,29.82,SE,127,7.0,18.0,77,0.00,,,0.00,weatherlink.com 1.10,2013-07-22 15:59:00,
2013-07-22 12:14:00,69.2,61.0,29.82,ESE,116,12.0,22.0,75,0.00,,,0.00,weatherlink.com 1.10,2013-07-22 16:14:00,
2013-07-22 12:29:00,70.0,61.0,29.81,SE,132,16.0,20.0,72,0.00,,,0.00,weatherlink.com 1.10,2013-07-22 16:29:00,
2013-07-22 12:44:00,70.2,61.0,29.81,South,189,11.0,19.0,72,0.00,,,0.00,weatherlink.com 1.10,2013-07-22 16:44:00,
2013-07-22 12:59:00,69.5,61.0,29.81,SE,132,14.0,20.0,75,0.00,,,0.00,weatherlink.com 1.10,2013-07-22 16:59:00,
2013-07-22 13:14:00,69.9,62.0,29.81,ESE,120,10.0,22.0,76,0.00,,,0.00,weatherlink.com 1.10,2013-07-22 17:14:00,
2013-07-22 13:29:00,69.2,61.0,29.80,SE,142,14.0,24.0,76,0.00,,,0.00,weatherlink.com 1.10,2013-07-22 17:29:00,
2013-07-22 13:44:00,69.4,62.0,29.80,SE,144,9.0,21.0,77,0.00,,,0.00,weatherlink.com 1.10,2013-07-22 17:44:00,
2013-07-22 13:59:00,69.9,63.0,29.79,SE,142,8.0,19.0,78,0.00,,,0.00,weatherlink.com 1.10,2013-07-22 17:59:00,
2013-07-22 14:14:00,70.2,62.0,29.79,SE,125,15.0,18.0,75,0.00,,,0.00,weatherlink.com 1.10,2013-07-22 18:14:00,
2013-07-22 14:30:00,70.0,61.0,29.78,SE,138,10.0,21.0,73,0.00,,,0.00,weatherlink.com 1.10,2013-07-22 18:30:00,
2013-07-22 14:44:00,70.4,61.0,29.77,SE,146,11.0,18.0,72,0.00,,,0.00,weatherlink.com 1.10,2013-07-22 18:44:00,
2013-07-22 14:59:00,70.8,62.0,29.77,SE,129,16.0,22.0,74,0.00,,,0.00,weatherlink.com 1.10,2013-07-22 18:59:00,
2013-07-22 15:29:00,70.1,64.0,29.75,South,186,8.0,23.0,80,0.00,,,0.00,weatherlink.com 1.10,2013-07-22 19:29:00,
2013-07-22 15:44:00,70.3,64.0,29.75,SSE,148,14.0,21.0,81,0.00,,,0.00,weatherlink.com 1.10,2013-07-22 19:44:00,
2013-07-22 16:14:00,71.5,65.0,29.73,SE,140,9.0,18.0,80,0.00,,,0.00,weatherlink.com 1.10,2013-07-22 20:14:00,
2013-07-22 16:29:00,71.3,65.0,29.72,SSE,154,7.0,24.0,80,0.00,,,0.00,weatherlink.com 1.10,2013-07-22 20:29:00,
2013-07-22 16:44:00,71.5,64.0,29.72,SSE,150,13.0,21.0,78,0.00,,,0.00,weatherlink.com 1.10,2013-07-22 20:44:00,
2013-07-22 16:59:00,71.9,65.0,29.71,SSE,153,9.0,17.0,79,0.00,,,0.00,weatherlink.com 1.10,2013-07-22 20:59:00,
2013-07-22 17:15:00,71.9,65.0,29.71,SSE,152,7.0,19.0,80,0.00,,,0.00,weatherlink.com 1.10,2013-07-22 21:15:00,
2013-07-22 17:30:00,72.2,65.0,29.69,SSE,152,7.0,20.0,78,0.00,,,0.00,weatherlink.com 1.10,2013-07-22 21:30:00,
2013-07-22 17:45:00,72.4,65.0,29.69,SSE,151,7.0,23.0,77,0.00,,,0.00,weatherlink.com 1.10,2013-07-22 21:45:00,
2013-07-22 18:00:00,72.7,65.0,29.68,SSE,155,7.0,19.0,77,0.00,,,0.00,weatherlink.com 1.10,2013-07-22 22:00:00,
2013-07-22 18:15:00,72.6,65.0,29.66,SE,142,6.0,22.0,78,0.00,,,0.00,weatherlink.com 1.10,2013-07-22 22:15:00,
2013-07-22 18:30:00,72.2,65.0,29.65,SE,126,10.0,19.0,79,0.00,,,0.00,weatherlink.com 1.10,2013-07-22 22:30:00,
2013-07-22 18:45:00,72.3,65.0,29.65,ESE,115,21.0,21.0,79,0.00,,,0.00,weatherlink.com 1.10,2013-07-22 22:45:00,
2013-07-22 19:00:00,71.8,65.0,29.65,SSE,150,7.0,19.0,79,0.00,,,0.00,weatherlink.com 1.10,2013-07-22 23:00:00,
2013-07-22 19:15:00,71.8,65.0,29.65,SE,136,8.0,20.0,79,0.00,,,0.00,weatherlink.com 1.10,2013-07-22 23:15:00,
2013-07-22 19:30:00,70.5,65.0,29.65,SE,145,5.0,14.0,82,0.00,,,0.00,weatherlink.com 1.10,2013-07-22 23:30:00,
2013-07-22 19:44:00,69.9,65.0,29.64,SE,146,9.0,17.0,83,0.00,,,0.00,weatherlink.com 1.10,2013-07-22 23:44:00,
2013-07-22 19:59:00,69.5,65.0,29.64,SE,144,7.0,17.0,84,0.00,,,0.00,weatherlink.com 1.10,2013-07-22 23:59:00,
2013-07-22 20:14:00,69.6,65.0,29.64,SSE,152,7.0,17.0,84,0.00,,,0.00,weatherlink.com 1.10,2013-07-23 00:14:00,
2013-07-22 20:29:00,70.0,65.0,29.63,SE,129,9.0,16.0,83,0.00,,,0.00,weatherlink.com 1.10,2013-07-23 00:29:00,
2013-07-22 20:44:00,70.0,65.0,29.63,SSE,151,9.0,18.0,83,0.00,,,0.00,weatherlink.com 1.10,2013-07-23 00:44:00,
2013-07-22 20:59:00,69.7,65.0,29.62,SE,142,8.0,17.0,84,0.00,,,0.00,weatherlink.com 1.10,2013-07-23 00:59:00,
2013-07-22 21:14:00,69.6,65.0,29.62,SE,142,6.0,17.0,85,0.00,,,0.00,weatherlink.com 1.10,2013-07-23 01:14:00,
2013-07-22 21:30:00,69.9,65.0,29.62,South,179,5.0,14.0,85,0.00,,,0.00,weatherlink.com 1.10,2013-07-23 01:30:00,
2013-07-22 21:44:00,69.9,65.0,29.62,SSE,164,6.0,13.0,85,0.00,,,0.00,weatherlink.com 1.10,2013-07-23 01:44:00,
2013-07-22 22:00:00,69.8,66.0,29.63,SSE,150,4.0,14.0,86,0.00,,,0.00,weatherlink.com 1.10,2013-07-23 02:00:00,
2013-07-22 22:15:00,69.9,66.0,29.64,SSW,192,9.0,15.0,87,0.00,,,0.00,weatherlink.com 1.10,2013-07-23 02:15:00,
2013-07-22 22:30:00,69.8,66.0,29.63,SSE,166,4.0,12.0,87,0.00,,,0.00,weatherlink.com 1.10,2013-07-23 02:30:00,
2013-07-22 22:45:00,69.6,66.0,29.62,South,169,5.0,10.0,88,0.00,,,0.00,weatherlink.com 1.10,2013-07-23 02:45:00,
2013-07-22 23:00:00,69.5,66.0,29.61,South,171,5.0,11.0,89,0.00,,,0.00,weatherlink.com 1.10,2013-07-23 03:00:00,
2013-07-22 23:15:00,69.5,66.0,29.61,SSE,162,5.0,10.0,89,0.00,,,0.00,weatherlink.com 1.10,2013-07-23 03:15:00,
2013-07-22 23:30:00,69.6,66.0,29.60,SSE,165,4.0,12.0,89,0.00,,,0.00,weatherlink.com 1.10,2013-07-23 03:30:00,
2013-07-22 23:45:00,69.8,67.0,29.58,SSE,168,5.0,13.0,89,0.00,,,0.00,weatherlink.com 1.10,2013-07-23 03:45:00,